Content
SEND FEEDBACK

Daily
Averages
Monthly
Summary
United States of America

EARTH CITY, MISSOURI


Home > North America > United States > Missouri
Elevation: 476 feet     Latitude: 38 46N     Longitude: 090 30W

WEATHER
 
SELECT A DAY
Number of Records: 206,460;   Date Range: 1/1/95 - 10/18/14
 
SHARE

PRINT THIS DATA

[ ← Previous Day ]
WEATHER ALMANAC - MAY 6, 2013
[ Next Day → ]
[ °C ]   °F
Weather ElementAverageHighLow
Temperature60.6 °F69.1 °F (2:51 pm)53.6 °F (4:16 am)
Dewpoint52.1 °F55 °F (9:51 pm)51.1 °F (12:51 am)
Humidity74.9 %94 % (4:16 am)54 % (2:51 pm)
Barometer29.95 in29.99 in (8:51 am)29.91 in (2:51 am)
Wind Speed7.1 mph15 mph (11:51 am)
Wind Gust24.2 mph (10:51 am)
Weather ElementAverage
Visibility10 mi
Wind DirectionSSE (164.4 °)

Weather ElementTotal
Precipitation---
Heating Degree Days3.7 (Base 65)
Growing Degree Days11.4 (Base 50)
Averaged from 27 records on May 6, 2013
WEATHER CONDITIONS BREAKOUT
WIND DIRECTION BREAKOUT
WEATHER BY HOUR - MAY 6, 2013
[ °C ]   °F
Local TimeTemperatureDewpointHumidityBarometerVisibilityWind DirectionWind SpeedGust SpeedPrecipitationEventsConditions
12:51 AM55.9 °F51.1 °F84 %29.95 in10.0 miNE (50°)9.2 mphOvercast
1:51 AM55.0 °F51.1 °F86 %29.93 in10.0 miNorth (10°)4.6 mphMostly Cloudy
2:48 AM55.4 °F51.8 °F88 %29.92 in10.0 miNorth (360°)6.9 mphOvercast
2:51 AM55.0 °F52.0 °F89 %29.91 in10.0 miNorth (350°)5.8 mphOvercast
3:06 AM55.4 °F51.8 °F88 %29.93 in10.0 miNorth (350°)6.9 mphOvercast
4:02 AM55.4 °F51.8 °F88 %29.92 in10.0 miNNW (340°)8.1 mphMostly Cloudy
4:16 AM53.6 °F51.8 °F94 %29.92 in10.0 miNorth (350°)6.9 mph0.00 inRainLight Rain
4:51 AM55.0 °F51.1 °F86 %29.92 in10.0 miNorth (10°)4.6 mph0.00 inMostly Cloudy
5:51 AM55.9 °F51.1 °F84 %29.94 in10.0 miNE (40°)4.6 mph0.00 inMostly Cloudy
6:51 AM55.9 °F51.1 °F84 %29.96 in10.0 miNorth (350°)5.8 mph0.00 inMostly Cloudy
7:40 AM55.4 °F51.8 °F88 %29.98 in10.0 miNorth (350°)9.2 mph0.00 inMostly Cloudy
7:51 AM55.9 °F52.0 °F87 %29.98 in10.0 miNorth (350°)10.4 mph0.00 inMostly Cloudy
8:51 AM57.9 °F52.0 °F81 %29.99 in10.0 miNNW (340°)8.1 mphMostly Cloudy
9:51 AM62.1 °F54.0 °F75 %29.98 in10.0 miNW (320°)6.9 mphMostly Cloudy
10:51 AM64.9 °F51.1 °F61 %29.97 in10.0 miNorth (360°)12.7 mph24.2 mphMostly Cloudy
11:51 AM66.0 °F51.1 °F59 %29.98 in10.0 miNE (40°)15.0 mph21.9 mphOvercast
12:51 PM68.0 °F51.1 °F55 %29.96 in10.0 miNE (40°)11.5 mphOvercast
1:51 PM66.9 °F51.1 °F57 %29.96 in10.0 miNorth (10°)10.4 mphOvercast
2:51 PM69.1 °F52.0 °F54 %29.95 in10.0 miNNE (20°)10.4 mphOvercast
3:51 PM68.0 °F51.1 °F55 %29.95 in10.0 miNNE (30°)12.7 mph19.6 mphOvercast
4:51 PM66.9 °F51.1 °F57 %29.95 in10.0 miNE (40°)12.7 mphOvercast
6:51 PM66.9 °F53.1 °F61 %29.94 in10.0 miNE (40°)4.6 mphMostly Cloudy
7:51 PM66.0 °F53.1 °F63 %29.96 in10.0 miCalmOvercast
8:51 PM64.0 °F54.0 °F70 %29.97 in10.0 miCalmOvercast
9:51 PM63.0 °F55.0 °F75 %29.98 in10.0 miCalmOvercast
10:51 PM63.0 °F54.0 °F72 %29.97 in10.0 miCalmMostly Cloudy
11:51 PM61.0 °F55.0 °F81 %29.98 in10.0 miWNW (290°)4.6 mphMostly Cloudy
Hourly data recorded from KSTL, located miles away from Earth City, Missouri







STORIES FROM OUR PARTNERS